GFSNE_prec_radar_042.txt.gz
Reflectivity
-20 -20 -20 -20 -20 -20 -20 -20 6 -13 -20 -20 -20 -20 -20 -20 -20 -20 -20 -20 -20 -20 -20 -20 -20 -15 1 18 20 20 33 32 3 -20 -20 -20 -20 -20
-20 -20 -20 -20 -20 -20 -20 -16 -18 -4 -9 -20 -20 -20 -20 -20 -20 -20 -20 -20 -20 -20 -20 -20 -20 -20 9 15 29 24 36 23 16 -9 -20 -20 -20 -20
-20 -20 -20 -20 -20 -20 -20 -20 -20 -20 -20 -20 -20 -20 -20 -20 -20 -20 -20 -20 -20 -20 -20 -20 -20 -20 -20 7 26 32 29 28 29 24 21 -10 -20 -20
-20 -20 -20 -20 -20 -20 -20 -20 -20 -20 -20 -20 -20 -20 -20 -20 -20 -20 -20 -20 -20 -20 -20 -20 -20 -20 -20 -19 30 26 32 35 31 -4 7 24 12 -20
-20 -20 -20 -20 -20 -20 -20 -20 -20 -20 -10 14 7 -20 -20 -20 -20 -20 -20 -20 -20 -20 -20 -20 -20 -20 -9 -20 -10 28 5 16 14 -6 3 26 21 0
-20 -20 -20 -20 -20 -20 -20 -20 -20 -12 -20 -6 0 -3 -20 -20 -20 -20 -20 -20 -20 -20 -20 -20 -20 -20 -20 -20 -19 -20 -20 16 24 17 20 -19 16 29
-20 -20 -20 -20 4 1 4 -5 -20 -20 5 9 7 -2 3 -1 -20 -20 -20 -20 -20 -20 -20 -20 -20 -20 -20 -20 -6 -15 -1 -20 -5 -19 1 8 5 9
-20 -20 -20 -20 -20 -2 -13 -20 -5 6 11 12 10 10 -16 -20 -20 -13 -20 -20 -20 -20 -20 -20 -20 -20 -20 -20 -20 -20 -6 -20 -20 -20 -20 -12 4 -20
-20 -20 -20 -20 -20 -20 -20 -20 -20 -20 -2 9 16 4 7 -20 -14 -20 -20 -20 -20 -20 -20 -20 -20 -20 -20 -20 -20 -20 -20 -20 -20 -20 -20 -17 -1 -1
-20 -20 -20 -20 -20 -6 -20 -20 -20 -20 -20 -20 -20 -20 -20 -20 -11 -12 -20 -18 -20 -20 -20 -1 -20 -20 -20 -20 -20 -20 -20 -20 -20 -18 -20 -20 -20 -8
-20 -20 -20 -20 -20 5 15 -10 -17 -20 -20 -20 3 9 12 6 5 8 8 13 -20 -20 -20 -15 -20 -20 -20 -20 -20 -20 -20 -20 -20 -20 -20 -20 -20 -20
-20 -20 -20 0 3 7 2 1 -18 9 -14 -20 -20 -20 -20 -20 -20 -8 -20 1 -15 -20 -20 -4 -20 -20 -20 -20 -20 -20 -20 -20 -20 -20 -20 -20 -20 -20
-20 -20 -20 -8 5 6 6 -3 11 -2 -20 -20 -20 -10 0 6 8 -2 -20 -20 -20 -20 -20 -20 -20 -20 -20 -20 -20 -20 -20 -20 -20 -20 -20 -20 -20 -20
-20 -3 -20 4 2 2 -4 8 4 -20 -20 -20 -20 -20 -20 -20 -20 1 9 -20 -20 -17 2 9 4 -4 -20 -20 -20 -20 -20 -20 -20 -20 -20 -20 -20 -20
-20 -20 -20 -20 -20 -20 -12 0 -20 -20 -20 -20 -20 -20 -16 -20 -20 -20 -9 14 -0 -20 -8 16 -2 -20 -20 -20 -20 -20 -20 -20 -20 -20 -20 -20 -20 -20
-20 -20 -20 -20 -20 -20 -20 -20 -20 -12 -4 -20 -20 -20 -20 -20 -20 -20 -20 9 14 3 -3 -6 -19 8 -5 -20 -4 -6 -20 -20 -20 -20 -20 -20 -20 -20
-20 -20 -20 -20 -20 -20 -20 -20 -20 -20 -20 -20 -20 -20 -20 -20 -20 -20 -20 -20 -20 -20 -14 -20 -20 -20 2 -12 -19 -20 -20 -20 -20 -20 -20 -20 -20 -20
-20 -20 -20 -20 -20 -20 -20 -20 -20 -20 -20 -20 -20 -20 -20 -20 -20 -20 -20 -20 -20 -20 -20 -20 -20 -20 -17 -17 -20 -0 -20 -20 -20 -20 -20 -20 -20 -20
-20 -20 -20 -20 -20 -20 -20 -20 -20 -20 -20 -20 -20 -20 -20 -20 -20 -20 -20 -20 -20 -20 -20 -20 -20 -20 -20 -20 -20 -20 -20 -20 -20 -20 -20 -20 2 -20
-20 -20 -20 -20 -20 -20 -20 -20 -20 -20 -20 -20 -20 -20 -20 -20 -20 -20 -20 -20 -20 -20 -20 -20 -20 -20 -20 -20 -20 -20 -18 -20 -20 -20 -20 -20 -20 -20
-20 -20 -20 -20 -20 -20 -20 -20 -20 -20 -20 -20 -20 -20 -20 -20 -20 -20 -20 -20 -20 -20 -20 -20 -20 -20 -20 -20 -20 -20 -20 0 -1 -20 -20 -20 -20 -20
-20 -20 -20 -20 -20 -20 -20 -20 -20 -20 -20 -20 -20 -20 -20 -20 -20 -20 -20 -20 -20 -20 -20 -20 -20 -20 -20 -20 -20 -20 -20 -20 3 -18 -20 -4 -20 -20
-20 -20 -20 -20 -20 -20 -20 -20 -20 -20 -20 -20 -20 -20 -20 -20 -20 -20 -20 -20 -20 -20 -20 -20 -20 -20 -20 -20 -20 -20 -20 -20 -20 -20 -20 -20 -20 -20

GFSNE_prec_radar_048.txt.gz
Reflectivity
15 20 15 -20 -20 -20 -20 -3 -16 -18 -20 -20 -20 -20 -20 -20 -20 -20 -20 -20 -20 -20 -20 -20 -20 -20 -20 -20 -20 -20 -12 2 -14 -6 16 -11 18 17
3 -20 -20 -20 -20 -20 -20 -20 -20 -12 -15 -20 -20 -20 -20 -20 -20 -20 -20 -20 -20 -20 -20 -20 -20 -20 -20 -20 -20 -20 -20 -8 -20 3 24 19 21 10
-20 -20 -20 -20 -20 -20 -20 -20 -20 -20 -20 -20 -20 -20 -20 -20 -19 -2 -20 -20 -20 -20 -20 -20 -20 -20 -20 -20 -20 -20 -20 -20 -20 6 23 16 21 23
-20 -20 -20 -20 -20 -20 -20 -20 -20 -20 3 -20 -20 -20 -20 -20 -20 -18 -20 -20 -20 -17 9 -20 -20 -20 -20 -20 -20 -20 -20 -3 -20 31 16 5 33 21
-20 -20 -20 -20 -20 -20 -20 -20 -20 -20 -14 1 -16 -20 -20 -20 -20 -8 -18 -8 -20 -20 -20 -20 -20 -20 -20 -20 -20 -20 -15 -17 -6 3 32 18 28 18
-10 1 -20 -20 -20 -20 -20 -20 -20 -20 -6 6 6 -20 -14 -20 -20 -7 -16 -4 -4 -12 -14 -18 -20 -20 -20 -20 -20 -20 -20 -20 -3 3 30 34 4 24
-16 -20 -20 -20 -20 -20 -20 -20 -20 -16 -5 -13 -0 1 1 -13 7 -15 -8 -13 -13 3 -18 -15 -6 -9 -20 -20 -20 -20 -20 -20 -20 0 21 29 36 33
-20 -20 -20 -20 -20 -20 -20 -20 -20 -3 3 3 8 10 11 11 4 3 5 -5 15 -4 17 10 -3 -5 -12 -18 -20 -20 -20 -20 -7 -16 5 15 31 33
-20 -20 -20 -20 -20 -20 -20 -20 -20 9 7 16 14 12 10 18 15 10 11 12 10 -7 17 19 17 9 -18 -20 -18 -20 -20 -20 -20 -20 13 -13 23 24
-20 -20 -20 -20 -20 -13 -3 9 5 4 -2 -6 9 13 10 5 9 14 20 18 12 -20 8 -8 15 2 -9 -5 -11 -20 -20 -20 -20 -20 -20 -20 5 11
-20 -20 -20 -20 -20 -16 7 9 8 7 1 -14 -3 -1 -10 -20 -12 22 9 17 20 17 8 21 14 8 1 9 -1 -13 -20 -20 -20 -20 -20 -20 -20 -20
-20 -20 -20 -20 -20 -4 2 8 9 9 2 1 3 5 -8 -15 -19 19 17 18 16 18 -15 22 16 8 10 -18 -8 8 -16 -20 -20 -20 -20 -20 -20 -20
-2 -20 -20 -20 -20 -20 -10 3 9 3 1 7 6 5 8 9 5 7 8 19 19 18 -18 5 14 10 18 17 20 15 17 7 -14 -15 -20 -20 -20 -20
-0 -20 -20 -20 -20 -20 -20 -20 -20 -11 9 5 6 6 9 6 1 1 -1 2 13 17 16 11 6 11 19 19 20 18 16 13 16 9 -10 -3 -20 -20
-17 -20 -20 -20 -20 -20 -20 -20 -20 -10 -19 -0 4 4 4 6 6 13 11 17 19 16 1 7 6 6 12 17 23 18 18 11 -6 8 4 8 13 -1
-16 -20 -20 -20 -20 -20 -20 -20 -20 -20 -20 -0 2 5 5 7 10 12 13 4 16 27 7 8 8 9 9 16 15 20 18 17 -0 13 -5 -2 15 17
-20 -12 -20 -20 -20 -20 -20 -20 -20 -20 -20 -5 2 3 0 -0 3 9 5 5 13 8 17 21 8 -1 16 24 25 19 17 20 20 15 12 13 13 -1
-20 -0 1 2 -20 -20 -20 -20 -20 -20 -20 -20 -5 0 2 0 2 6 5 6 9 6 8 1 3 31 8 -9 -16 22 19 23 12 -10 -20 -7 -11 -18
-2 1 6 3 -19 -20 -20 -20 -20 -20 -20 -20 -20 -4 -4 -4 4 7 7 4 4 0 0 -1 -0 -11 11 23 -10 -20 17 5 2 -15 -20 -20 -19 1
-20 1 2 2 -20 -20 -20 -20 -20 -20 -20 -20 -20 -20 -4 -3 3 1 4 3 2 -4 -6 -1 3 -13 6 8 9 1 -20 3 -20 -20 -20 -4 -5 -20
2 -2 -1 3 -20 -20 -20 -20 -20 -20 -20 -20 -20 -20 -10 -20 -4 -1 1 1 -18 -7 3 -1 1 -20 -6 -13 4 6 -10 -20 -20 -20 -20 -14 -18 -9
1 -6 -16 0 1 -9 -20 -20 -20 -20 -20 -20 -20 -20 -20 -20 -20 -18 -17 -16 -20 -0 4 1 1 -0 7 4 18 -6 5 -20 -20 -20 -20 -19 2 11
9 7 -5 -19 2 2 -20 -20 -20 -20 -20 -20 -20 -20 -20 -20 -20 -20 -19 -20 -20 -20 -1 -2 4 3 3 -4 -4 13 -19 -15 4 7 0 -20 -20 -20

GFSNE_prec_radar_051.txt.gz
Reflectivity
12 17 -18 5 -20 -19 -20 -20 8 -1 -20 -20 -20 -20 -20 -20 -20 -20 -20 -20 -20 -20 -20 -20 -20 -20 -20 -20 -20 -20 -20 -20 -20 -20 5 -3 -4 -5
13 5 -7 -20 -20 -20 -20 -20 -20 -20 -20 -20 -20 -20 -20 -20 -20 -19 -20 -20 -20 -20 -20 -20 -20 -20 -20 -20 -20 -20 -20 -20 -20 -20 3 -9 2 5
-20 9 -1 -19 -20 -20 -20 -20 -20 -20 3 -20 -20 -20 -20 -20 -20 -20 -20 -20 -20 -20 -20 -19 12 -20 -20 -20 -20 -20 -20 -20 -20 -20 -2 -13 2 -12
5 6 -20 -20 -20 -20 -20 -20 -20 -20 11 -20 -20 -20 -20 -20 -20 -20 -20 -20 -20 -20 -20 9 -20 -20 -20 -20 -20 -20 -20 -20 -20 -20 -20 -20 6 7
-15 1 -11 -17 -20 -20 -20 -20 -20 -20 -20 -20 -20 -20 -20 -20 -20 -20 -20 -20 -20 -20 -20 -20 -12 -3 -9 -20 -20 -20 -20 -20 -20 -20 -20 -20 7 11
7 -17 -8 -20 -20 -20 -20 -20 -20 -20 -20 -20 -20 -20 -20 -20 -20 -20 -15 -20 -20 -20 -20 -20 -10 -6 -20 -20 -20 -20 -20 -20 -20 -20 -20 -20 19 28
-5 -20 -20 -20 -20 -20 -20 -20 -20 -20 -20 -20 -20 -15 -20 -20 -8 9 -8 -16 -3 -12 -20 -20 -20 -20 14 -20 -20 -20 -20 -20 -20 -20 -20 -3 -3 35
-20 -20 -20 -20 -20 -20 -20 -20 -20 -20 -4 4 8 10 11 6 -14 18 18 16 15 -0 16 14 16 14 -19 -20 16 -7 -20 -20 -20 -20 -20 1 6 33
-20 -20 -20 -20 -20 -20 -20 -20 -20 3 4 10 13 10 14 16 9 9 4 12 14 -2 14 9 3 12 -20 -20 2 -7 -20 -20 -20 -20 3 -8 12 18
-20 -20 -20 -20 -20 -20 -20 -20 -3 -0 4 4 7 8 6 -19 -7 -3 -1 9 8 5 13 14 -6 7 9 -20 -20 -20 -20 -20 -20 -20 -20 -16 3 23
-20 -20 -20 -20 -20 -20 -20 -9 -1 1 -8 -14 -20 -20 -20 -20 -17 13 9 18 18 16 16 14 -2 10 16 -15 -20 -20 -20 -20 -20 -20 -20 -20 -19 -19
-9 -20 -19 -20 -20 -20 -20 -4 2 3 -20 -19 -18 3 0 7 10 -1 18 23 20 17 18 14 16 16 14 -13 -17 14 -14 -20 -20 -20 -20 -20 -20 -20
-10 -13 -6 -20 -20 -20 -20 -9 5 -20 -20 -12 8 -12 9 11 12 11 -3 9 11 5 12 18 5 12 11 12 26 18 18 11 -20 -20 -20 -20 -20 -20
-1 -5 -2 -20 -20 -20 -20 -20 -20 -20 5 -4 2 6 6 8 6 7 -20 4 12 14 16 17 2 -15 -12 10 14 20 20 1 20 18 1 -20 -20 -20
-1 -19 -20 -20 -20 -20 -20 -20 -20 -1 -20 -13 2 2 6 -15 5 14 12 10 15 26 15 10 4 7 7 5 16 33 20 12 -20 -18 -4 -4 12 -20
-16 5 -20 -20 -20 -20 -20 -13 -20 -8 -20 -20 -4 3 4 2 3 5 11 6 4 36 -1 -6 2 6 2 7 14 12 -12 19 4 14 -4 10 -19 14
-20 -20 -5 3 -1 -4 -20 -20 -20 -20 -20 -20 -20 -7 -5 -2 2 -9 5 6 7 10 17 26 12 -10 1 4 -6 3 24 5 17 16 -8 -5 10 7
-9 -2 2 10 6 3 -2 -20 -20 -20 -20 -20 -20 -20 -6 -3 -5 4 6 5 6 3 4 0 -13 23 12 -13 -20 27 33 31 17 -2 -17 12 21 -19
-4 0 7 8 7 3 -3 -20 -20 -20 -20 -20 -20 -15 -5 -4 -1 2 5 6 -1 -20 -20 -0 2 1 19 30 -19 -20 14 -19 8 -16 -20 -14 9 13
-4 0 0 5 5 1 -18 -20 -20 -2 -0 -19 -19 -2 -4 -5 -4 -2 -4 -0 2 -19 -16 0 13 -18 -5 2 4 3 -20 -0 0 -10 -20 -20 -19 -20
8 12 12 1 -9 2 -3 -1 -0 1 0 -5 -3 -3 -2 -4 -7 -4 -4 -0 -20 -4 5 2 -11 -20 -20 -20 -1 1 -19 -20 -20 -13 -20 -20 15 4
11 8 -2 -7 -12 4 1 -0 1 -12 1 -2 -20 -10 -1 -4 -6 -20 -5 -17 -18 -20 1 -4 9 8 -1 0 12 -7 -0 -16 -20 -20 -20 -19 -13 15
10 10 13 11 8 6 2 -0 -5 -2 -0 -4 -3 -3 -20 -5 -9 -20 -20 -20 -20 -20 -20 -19 -10 11 7 -18 -11 18 -20 -19 -7 -7 -20 -20 -20 -20

GFSNE_prec_radar_057.txt.gz
Reflectivity
-20 -20 -20 -20 -20 -13 14 -17 -2 -18 -20 -20 -20 -20 -20 -20 -20 -20 -20 -20 -20 -20 -20 -20 -20 -20 -20 -20 -20 -20 -20 -16 -20 -20 -20 -20 -20 -20
-20 -20 -20 -20 -20 -20 -20 -19 9 5 -20 -20 -20 -20 -20 -20 -20 -20 -20 -20 -20 -20 -20 -20 -20 -20 -20 -20 -20 -20 -20 -20 13 -20 -20 -20 -20 -20
-20 -20 -20 -20 -20 -18 -13 -9 -20 -20 -20 -20 -20 -20 -20 -20 -20 -20 -20 -20 -20 -20 -20 -20 -20 -20 -20 -20 -20 -20 -20 8 -20 -20 -20 -20 -20 -20
-20 -20 -20 -20 -20 -20 -20 -20 -20 -20 -20 -20 -20 -20 -20 -20 -20 -20 -20 -20 -20 -20 -20 -20 -20 5 -17 -20 -20 -20 -19 -18 -20 -20 -20 -20 -20 -20
-20 -20 -20 -20 -20 -20 -20 -20 -20 -20 -20 -20 -20 -20 -20 -20 -20 -20 -20 -20 -20 -20 -20 -20 -20 -20 -20 -17 0 -20 10 3 -20 -20 -20 -20 -20 -20
-20 -20 -20 -20 -20 -20 -20 -20 -20 -20 -20 -20 -20 -20 -20 -20 -20 -20 -20 -20 -20 -20 -20 -20 -20 -20 -20 -20 -20 -20 -20 -17 -12 -20 -20 -20 -20 -20
-20 -20 -20 -20 -20 -20 -20 -20 -20 -20 -20 -20 -20 -20 -20 -20 -20 -20 2 -17 -20 -20 -20 -20 -20 -20 -20 -20 -20 -20 2 2 7 -14 -20 -20 -20 -20
-4 -20 -20 -20 -20 -20 -20 -20 -20 -20 -20 -20 -20 -14 -20 -20 6 -20 -20 -20 -20 -20 -20 -20 -20 -20 -20 -20 -20 -20 3 12 -20 -20 -20 -20 -20 -15
-19 -20 -20 -20 -20 -20 -20 -20 -20 -20 -20 -20 -20 -14 0 -20 -20 -20 -20 -20 -20 -20 -20 -20 -20 -20 -20 -20 -20 -20 -20 -20 -20 9 -20 -20 -20 -2
-20 -20 -20 -20 -20 -20 -20 -20 -20 -20 -20 -20 -14 -20 -20 -20 -14 5 -7 -20 -20 -20 -20 2 -20 -20 -20 -20 -20 -20 -20 -20 1 -20 -20 -20 -20 -20
-20 -20 -20 -20 -20 -20 -20 -20 -20 -20 -20 -20 -20 -20 -20 -20 4 8 2 13 -0 -20 -20 -20 -20 -20 -20 -20 -20 -20 -20 10 -7 -16 -1 -20 -20 -20
-20 -20 -20 -20 -20 -20 -20 -20 -20 -20 -20 -20 -20 -20 -20 -20 -1 -1 7 -12 -20 -18 -20 -20 -20 -20 -18 -20 -20 -20 -2 -9 -20 -20 6 -20 -20 -20
-20 -20 -20 -20 -20 -20 -20 -20 -20 -20 -20 -20 -20 -20 -20 -20 -20 -20 -20 -20 7 2 -20 8 1 -20 -5 -19 -20 -11 9 22 -20 -20 10 -20 -20 -20
-20 -20 -20 -20 -20 -20 -20 -20 -20 -20 -20 -20 -20 -20 -20 -20 -20 -20 -20 -20 -20 -20 -20 19 16 3 -11 -20 -16 7 10 28 9 -20 -20 -20 -20 -20
-20 -20 -20 -20 -20 -20 -20 -20 -20 -20 -20 -20 -20 -20 -20 -20 -20 -20 -20 -20 -20 -20 -6 -1 16 7 3 3 -12 -20 8 28 -4 1 7 -20 -20 -20
-20 -20 -20 -20 -20 -20 -20 -20 -20 -20 -20 -20 -20 -20 -20 -20 -20 -20 -20 -20 -20 -20 -20 -12 -19 -19 -14 -20 -17 -20 -20 -1 29 -16 -20 -20 -10 -20
-18 -17 -20 -20 -20 -20 -20 -20 -20 -20 -20 -20 -20 -20 -20 -20 -20 -20 -20 -20 -7 -20 -20 -20 -20 -20 -20 -20 -20 -20 -20 -20 11 -20 -20 -20 -20 -20
-15 -20 -20 -20 -20 -20 -20 -20 -20 -20 -20 -20 -20 -20 -20 -20 -20 -20 -20 -20 -20 -20 -20 -20 -20 -20 -20 -17 -20 -7 22 4 -14 -20 -20 -6 -2 4
5 -20 -20 -20 -20 -20 -13 -20 -20 -20 -20 -20 -20 -20 -20 -20 -20 -20 -20 -20 -20 -20 -20 -20 -3 -20 -20 -20 -20 -20 8 5 -3 -20 -20 14 11 -3
-20 -20 -20 -20 -20 -20 -12 -20 -20 -20 -20 -20 -20 -20 -20 -20 -20 -20 -20 -20 -20 -20 -20 -20 -20 -20 -7 -20 -20 -20 -20 -20 -20 -20 -20 -20 -11 -17
-20 -20 -20 -20 -20 -20 -20 -20 -20 -20 -20 -20 -20 -20 -20 -20 -20 -20 -20 -20 -20 -20 -20 -20 -20 -20 -20 -20 -20 -20 -20 -20 -20 -20 -20 -20 -18 -20
-20 -20 -20 -20 -20 -19 -17 -20 -20 -20 -20 -20 -20 -20 -20 -20 -20 -20 -20 -20 -20 -20 -20 -20 -20 -20 1 -15 -20 -20 -20 -20 -20 -20 -20 -19 -7 -20
-20 -20 -20 -20 -20 -20 -20 -20 -20 -20 -20 -20 -20 -20 -20 -20 -20 -20 -20 -20 -20 -20 -20 -20 -20 -20 -20 -20 -20 -20 -20 -20 -20 -20 -20 -20 -20 -20